Center Point, TX

4:48 AM CDT on August 26, 2016 (GMT -0500)
Kerrville Municipal-Schreiner

Weather History for KERV - March, 2013

Change the Weather History Date:

Tuesday, March 5, 2013

  Actual Average (KHDO) Record (KHDO)
Temperature  
Mean Temperature 48 °F -  
Max Temperature 62 °F 68 °F 84 °F (2009)
Min Temperature 35 °F 45 °F 19 °F (2002)
Degree Days  
Heating Degree Days 16    
Moisture  
Dew Point 19 °F    
Average Humidity 33    
Maximum Humidity 66    
Minimum Humidity 9    
Precipitation  
Precipitation 0.00 in - - ()
Sea Level Pressure  
Sea Level Pressure 30.22 in    
Wind  
Wind Speed 12 mph (North)    
Max Wind Speed 31 mph    
Max Gust Speed 39 mph    
Visibility 10 miles    
Events      
Averages and records for this station are not official NWS values.
T = Trace of Precipitation, MM = Missing Value Source: NWS Daily Summary

Daily Weather History Graph

Daily Weather History Graph

Search for Another Location

Airport or City:

Trip Planner

Search our weather history database for the weather conditions in past years. The results will help you decide how hot, cold, wet, or windy it might be!

Date:

Astronomy

Mar. 05, 2013 Rise Set
Actual Time 6:57 AM CST 6:38 PM CST
Civil Twilight 6:33 AM CST 7:02 PM CST
Nautical Twilight 6:05 AM CST 7:30 PM CST
Astronomical Twilight 5:38 AM CST 7:57 PM CST
Moon 1:52 AM CST (3/5) 12:37 PM CST (3/5)
Length of Visible Light 12h 28m
Length of Day
11h 40m
Last Quarter, 40% of the Moon is Illuminated
Mar 5
Last Quarter
Mar 11
New
Mar 19
First Quarter
Mar 27
Full
Apr 2
Last Quarter

Hourly Weather History & Observations

Time (CST) Temp. Windchill Dew Point Humidity Pressure Visibility Wind Dir Wind Speed Gust Speed Precip Events Conditions
12:15 AM 53.6 °F - 33.8 °F 47% 29.81 in 10.0 mi Calm Calm - N/A   Clear
12:35 AM 55.4 °F - 33.8 °F 44% 29.81 in 10.0 mi SSE 3.5 mph - N/A   Clear
12:55 AM 59.0 °F - 35.6 °F 42% 29.81 in 10.0 mi SSE 3.5 mph - N/A   Clear
1:15 AM 59.0 °F - 35.6 °F 42% 29.82 in 10.0 mi SSE 3.5 mph - N/A   Clear
1:55 AM 59.0 °F - 37.4 °F 45% 29.83 in 10.0 mi Calm Calm - N/A   Clear
2:35 AM 50.0 °F - 37.4 °F 62% 29.86 in 10.0 mi NNW 5.8 mph - N/A   Clear
2:55 AM 51.8 °F - 35.6 °F 54% 29.88 in 10.0 mi North 5.8 mph - N/A   Clear
3:15 AM 55.4 °F - 33.8 °F 44% 29.93 in 10.0 mi NW 11.5 mph 18.4 mph N/A   Clear
3:35 AM 59.0 °F - 39.2 °F 48% 29.96 in 10.0 mi North 25.3 mph 39.1 mph N/A   Clear
3:55 AM 53.6 °F - 37.4 °F 54% 29.99 in 10.0 mi NNW 31.1 mph 38.0 mph N/A   Clear
4:15 AM 50.0 °F - 35.6 °F 58% 30.04 in 10.0 mi NNW 20.7 mph 34.5 mph N/A   Clear
4:35 AM 50.0 °F - 35.6 °F 58% 30.07 in 10.0 mi NNW 21.9 mph 36.8 mph N/A   Clear
4:55 AM 48.2 °F - 33.8 °F 58% 30.10 in 10.0 mi NNW 24.2 mph 35.7 mph N/A   Clear
5:15 AM 46.4 °F 38.1 °F 33.8 °F 62% 30.12 in 10.0 mi NNW 24.2 mph 28.8 mph N/A   Clear
5:35 AM 46.4 °F 39.0 °F 33.8 °F 62% 30.13 in 10.0 mi North 19.6 mph 29.9 mph N/A   Clear
5:55 AM 44.6 °F 36.4 °F 33.8 °F 66% 30.14 in 10.0 mi North 20.7 mph 34.5 mph N/A   Clear
6:15 AM 44.6 °F 36.9 °F 33.8 °F 66% 30.14 in 10.0 mi North 18.4 mph 28.8 mph N/A   Clear
6:55 AM 44.6 °F 36.1 °F 32.0 °F 61% 30.17 in 10.0 mi North 21.9 mph 28.8 mph N/A   Clear
7:15 AM 44.6 °F 36.6 °F 32.0 °F 61% 30.19 in 10.0 mi North 19.6 mph 31.1 mph N/A   Clear
7:35 AM 44.6 °F 38.1 °F 32.0 °F 61% 30.20 in 10.0 mi North 13.8 mph 27.6 mph N/A   Clear
7:55 AM 44.6 °F 36.4 °F 32.0 °F 61% 30.22 in 10.0 mi North 20.7 mph 26.5 mph N/A   Clear
8:15 AM 44.6 °F 37.2 °F 30.2 °F 57% 30.24 in 10.0 mi North 17.3 mph 26.5 mph N/A   Clear
8:35 AM 46.4 °F 39.0 °F 28.4 °F 50% 30.26 in 10.0 mi North 19.6 mph 34.5 mph N/A   Clear
8:55 AM 48.2 °F - 26.6 °F 43% 30.27 in 10.0 mi North 15.0 mph 28.8 mph N/A   Clear
9:15 AM 48.2 °F - 26.6 °F 43% 30.29 in 10.0 mi North 23.0 mph 33.4 mph N/A   Clear
9:35 AM 48.2 °F - 26.6 °F 43% 30.30 in 10.0 mi North 17.3 mph 28.8 mph N/A   Clear
9:55 AM 50.0 °F - 23.0 °F 35% 30.30 in 10.0 mi North 19.6 mph 26.5 mph N/A   Clear
10:15 AM 50.0 °F - 21.2 °F 32% 30.30 in 10.0 mi North 23.0 mph 29.9 mph N/A   Clear
10:35 AM 51.8 °F - 19.4 °F 28% 30.31 in 10.0 mi North 19.6 mph 25.3 mph N/A   Clear
10:55 AM 53.6 °F - 17.6 °F 24% 30.32 in 10.0 mi North 24.2 mph 32.2 mph N/A   Clear
11:15 AM 53.6 °F - 14.0 °F 21% 30.32 in 10.0 mi North 20.7 mph 29.9 mph N/A   Clear
11:35 AM 55.4 °F - 17.6 °F 23% 30.33 in 10.0 mi North 18.4 mph 27.6 mph N/A   Clear
11:55 AM 55.4 °F - 15.8 °F 21% 30.32 in 10.0 mi North 19.6 mph 26.5 mph N/A   Clear
12:15 PM 55.4 °F - 15.8 °F 21% 30.33 in 10.0 mi North 20.7 mph 27.6 mph N/A   Clear
12:35 PM 57.2 °F - 17.6 °F 21% 30.33 in 10.0 mi North 17.3 mph 26.5 mph N/A   Clear
12:55 PM 59.0 °F - 15.8 °F 19% 30.32 in 10.0 mi North 18.4 mph 27.6 mph N/A   Clear
1:15 PM 59.0 °F - 14.0 °F 17% 30.31 in 10.0 mi North 21.9 mph 28.8 mph N/A   Clear
1:35 PM 60.8 °F - 14.0 °F 16% 30.31 in 10.0 mi North 13.8 mph 25.3 mph N/A   Clear
1:55 PM 60.8 °F - 14.0 °F 16% 30.30 in 10.0 mi North 15.0 mph 25.3 mph N/A   Clear
2:15 PM 60.8 °F - 12.2 °F 15% 30.29 in 10.0 mi North 10.4 mph 21.9 mph N/A   Clear
2:35 PM 60.8 °F - 10.4 °F 14% 30.29 in 10.0 mi North 18.4 mph 24.2 mph N/A   Clear
2:55 PM 60.8 °F - 10.4 °F 14% 30.29 in 10.0 mi NNW 16.1 mph 25.3 mph N/A   Clear
3:15 PM 60.8 °F - 8.6 °F 13% 30.29 in 10.0 mi NNW 16.1 mph 19.6 mph N/A   Clear
3:35 PM 60.8 °F - 3.2 °F 10% 30.29 in 10.0 mi NNW 16.1 mph 21.9 mph N/A   Clear
3:55 PM 62.6 °F - 1.4 °F 9% 30.29 in 10.0 mi North 11.5 mph 17.3 mph N/A   Clear
4:15 PM 60.8 °F - 1.4 °F 9% 30.29 in 10.0 mi North 12.7 mph 23.0 mph N/A   Clear
4:35 PM 60.8 °F - 1.4 °F 9% 30.29 in 10.0 mi North 13.8 mph 17.3 mph N/A   Clear
4:55 PM 60.8 °F - 1.4 °F 9% 30.29 in 10.0 mi North 16.1 mph 19.6 mph N/A   Clear
5:15 PM 60.8 °F - 3.2 °F 10% 30.29 in 10.0 mi North 15.0 mph 21.9 mph N/A   Clear
5:35 PM 60.8 °F - 3.2 °F 10% 30.29 in 10.0 mi North 12.7 mph - N/A   Clear
5:55 PM 59.0 °F - 3.2 °F 11% 30.29 in 10.0 mi NNE 11.5 mph - N/A   Clear
6:15 PM 59.0 °F - 1.4 °F 10% 30.30 in 10.0 mi North 8.1 mph - N/A   Clear
6:35 PM 55.4 °F - 5.0 °F 13% 30.31 in 10.0 mi North 11.5 mph - N/A   Clear
6:55 PM 53.6 °F - 6.8 °F 15% 30.31 in 10.0 mi North 5.8 mph - N/A   Clear
7:15 PM 51.8 °F - 8.6 °F 18% 30.31 in 10.0 mi NE 3.5 mph - N/A   Clear
7:35 PM 50.0 °F - 8.6 °F 19% 30.32 in 10.0 mi Calm Calm - N/A   Clear
7:55 PM 50.0 °F - 8.6 °F 19% 30.32 in 10.0 mi NNE 5.8 mph - N/A   Clear
8:15 PM 48.2 °F - 5.0 °F 17% 30.32 in 10.0 mi NNE 4.6 mph - N/A   Clear
8:35 PM 48.2 °F - 5.0 °F 17% 30.32 in 10.0 mi NNE 4.6 mph - N/A   Clear
8:55 PM 48.2 °F - 5.0 °F 17% 30.33 in 10.0 mi Calm Calm - N/A   Clear
9:15 PM 42.8 °F 41.1 °F 12.2 °F 29% 30.34 in 10.0 mi WNW 3.5 mph - N/A   Clear
9:35 PM 42.8 °F 41.1 °F 10.4 °F 27% 30.35 in 10.0 mi WNW 3.5 mph - N/A   Clear
9:55 PM 41.0 °F 38.0 °F 14.0 °F 33% 30.35 in 10.0 mi WNW 4.6 mph - N/A   Clear
10:15 PM 41.0 °F 38.0 °F 15.8 °F 36% 30.36 in 10.0 mi WNW 4.6 mph - N/A   Clear
10:35 PM 37.4 °F 34.9 °F 15.8 °F 41% 30.36 in 10.0 mi NW 3.5 mph - N/A   Clear
10:55 PM 39.2 °F 37.0 °F 15.8 °F 39% 30.37 in 10.0 mi NW 3.5 mph - N/A   Clear
11:15 PM 37.4 °F 33.8 °F 17.6 °F 45% 30.37 in 10.0 mi NW 4.6 mph - N/A   Clear
11:35 PM 35.6 °F 31.7 °F 12.2 °F 38% 30.37 in 10.0 mi NW 4.6 mph - N/A   Clear
11:55 PM 35.6 °F 32.8 °F 14.0 °F 41% 30.36 in 10.0 mi NW 3.5 mph - N/A   Clear